Location: Waco, TX
(31.5480°N, 97.1670°W)
Time: 08:30:20
(UTC-05:00)

ISS - Pass Details

Date: 22 June 2018
Orbit: 403 x 408 km, 51.6° (Epoch: 15 October)

Event Time Altitude Azimuth Distance (km) Brightness Sun altitude
Rises 16:08:46 0° 323° (NW) 2,345 0.3 54.2°
Reaches altitude 10° 16:10:59 10° 333° (NNW) 1,478 -0.6 53.8°
Maximum altitude 16:14:03 34° 41° (NE) 691 -2.5 53.1°
Drops below altitude 10° 16:17:05 10° 108° (ESE) 1,464 -1.2 52.5°
Enters shadow 16:35:04 -37° 131° (SE) 8,324 2.3 48.6°
Exits shadow 17:09:48 -75° 323° (NW) 12,776 3.4 41.2°
Sets 17:55:01 0° 173° (S) 2,308 -0.1 31.7°
